[[{"header":{"parameterUnit":"m.s-1","parameterCategory":1,"la1":30.2991,"la2":30.254,"lo1":-89.0895,"lo2":-89.0444,"dy":0.0017,"dx":0.0017,"nx":28,"ny":28,"refTime":"2023-08-24T03:00:00:Z","depth":0,"parameterNumber":2,"parameterNumberName":"U-component_of_WINDS"},"data":[0,0,0,0,0,0,0,0,0,0,0,0,0,0,0,0,0,0,0,0,0,0,0,0,0,0,0,0,0,0,0,0,0,0,0,0,0,0,0,0,0,0,0,0,0,0,0,0,0,0,0,0,0,0,0,0,0,0,-2.6967,-2.6967,0,-2.6925,-2.6924,-2.6924,-2.6866,-2.6865,-2.6864,-2.6863,-2.6817,-2.6817,-2.6816,0,0,0,0,0,0,0,0,0,0,0,0,0,-2.6998,-2.6997,-2.6967,-2.6967,-2.6966,-2.6925,-2.6924,-2.6923,-2.6866,-2.6865,-2.6864,-2.6863,-2.6817,-2.6817,-2.6816,0,0,0,0,0,0,0,0,0,0,0,0,0,-2.6973,-2.6997,-2.6967,-2.6933,-2.6929,-2.6925,-2.6924,-2.6923,-2.6867,-2.6865,-2.6864,-2.6863,-2.6817,-2.6817,-2.6816,-2.6841,0,0,-2.6815,-2.6814,0,0,0,0,0,0,0,0,-2.6974,-2.6972,-2.6938,-2.6935,-2.6931,-2.6899,-2.6918,-2.6896,-2.6867,-2.689,-2.6863,-2.6862,-2.6845,-2.6842,-2.6837,-2.6839,-2.6837,-2.6815,-2.6814,-2.6814,-2.6814,0,0,0,0,0,0,0,-2.6976,-2.6973,-2.695,-2.6938,-2.6934,-2.6919,-2.6914,-2.6913,-2.6876,-2.6888,-2.6884,-2.688,-2.6843,-2.6838,-2.6836,-2.6836,-2.6815,-2.6814,-2.6814,-2.6814,-2.6857,-2.6858,0,0,0,0,0,0,-2.6983,-2.6975,-2.6951,-2.6949,-2.695,-2.692,-2.6914,-2.6911,-2.6876,-2.6869,-2.6881,-2.6877,-2.684,-2.6837,-2.6834,-2.6861,-2.6814,-2.6813,-2.6813,-2.6856,-2.6857,-2.6859,0,0,0,0,0,0,-2.6984,-2.6982,-2.6953,-2.6961,-2.6956,-2.6921,-2.6918,-2.6911,-2.6906,-2.6871,-2.6864,-2.6883,-2.6838,-2.6835,-2.684,-2.6858,-2.6813,-2.6813,-2.6854,-2.6856,-2.6858,-2.6915,0,0,0,0,0,0,-2.6985,-2.6982,-2.6992,-2.6961,-2.6956,-2.6961,-2.6919,-2.6911,-2.6905,-2.69,-2.6871,-2.6864,-2.6837,-2.6841,-2.684,-2.6857,-2.6812,-2.6852,-2.6855,-2.6857,-2.6911,-2.6919,-2.6926,0,0,0,0,0,-2.6986,-2.7009,-2.6992,-2.699,-2.6967,-2.6962,-2.6959,-2.6928,-2.6907,-2.6916,-2.6894,-2.6865,-2.6857,-2.6842,-2.684,-2.6857,-2.6851,-2.6854,-2.6857,-2.6908,-2.6918,-2.6925,0,0,0,0,0,0,-2.704,-2.7004,-2.6985,-2.6999,-2.6984,-2.6952,-2.6962,-2.6938,-2.6928,-2.6924,-2.6885,-2.6879,-2.6889,-2.6874,-2.6858,-2.688,-2.685,-2.6853,-2.6889,-2.6898,-2.6905,-2.6907,-2.6812,0,0,0,0,0,-2.7054,-2.7054,-2.7022,-2.7036,-2.703,-2.6998,-2.6994,-2.6972,-2.6955,-2.6948,-2.6926,-2.691,-2.6904,-2.69,-2.6892,-2.691,-2.6902,-2.6921,-2.6928,-2.6934,-2.6936,-2.6944,-2.6952,-2.687,-2.687,-2.687,0,0,-2.7082,-2.7062,-2.7064,-2.7047,-2.7033,-2.7033,-2.6993,-2.6994,-2.6993,-2.6948,-2.6952,-2.6936,-2.6915,-2.6926,-2.693,-2.6914,-2.6958,-2.6938,-2.6943,-2.6942,-2.6949,-2.6956,-2.6963,-2.6872,-2.6872,-2.6871,0,0,-2.7132,-2.7117,-2.7128,-2.7115,-2.7095,-2.7074,-2.7077,-2.7049,-2.7037,-2.7041,-2.7007,-2.7005,-2.6995,-2.6982,-2.6974,-2.7022,-2.6995,-2.7021,-2.7057,-2.7065,-2.7072,-2.7077,-2.7093,-2.71,-2.7024,-2.7024,-2.7024,0,-2.7169,-2.7168,-2.7136,-2.714,-2.7134,-2.7094,-2.7105,-2.7094,-2.7072,-2.7068,-2.7051,-2.7038,-2.7022,-2.703,-2.7042,-2.7037,-2.7038,-2.7023,-2.7073,-2.7079,-2.7083,-2.7098,-2.7105,-2.7027,-2.7027,-2.7026,-2.7026,0,-2.7213,-2.7213,-2.7225,-2.7206,-2.7201,-2.7208,-2.7177,-2.7176,-2.7155,-2.7136,-2.714,-2.7119,-2.7107,-2.7108,-2.7086,-2.7113,-2.7103,-2.7081,-2.7049,-2.7095,-2.7108,-2.7114,-2.7031,-2.703,-2.7029,-2.7029,0,0,-2.7294,-2.7259,-2.7264,-2.7255,-2.7231,-2.723,-2.7236,-2.7225,-2.7224,-2.7212,-2.7215,-2.7209,-2.7188,-2.7179,-2.7156,-2.7164,-2.7203,-2.714,-2.7138,-2.7151,-2.723,-2.7247,-2.7254,-2.7186,-2.7187,-2.7187,-2.7231,0,-2.7339,-2.7347,-2.732,-2.7334,-2.7334,-2.7298,-2.7303,-2.7288,-2.7271,-2.7268,-2.7248,-2.7244,-2.7217,-2.7212,-2.7218,-2.7197,-2.7218,-2.7193,-2.7187,-2.7187,-2.7192,-2.7261,-2.7278,-2.732,-2.7237,-2.7237,-2.7238,0,-2.7391,-2.7382,-2.7397,-2.7373,-2.7372,-2.7377,-2.7365,-2.7363,-2.7346,-2.7333,-2.7325,-2.7299,-2.7303,-2.7274,-2.7278,-2.7262,-2.7259,-2.7248,-2.7249,-2.7246,-2.7214,-2.7258,-2.7333,-2.7339,-2.7246,-2.7246,-2.7245,0,-2.7448,-2.7439,-2.7447,-2.7441,-2.7413,-2.7418,-2.7406,-2.7388,-2.7384,-2.7374,-2.7371,-2.7361,-2.7355,-2.7348,-2.7321,-2.7303,-2.7328,-2.7297,-2.7317,-2.7317,-2.7322,-2.7322,-2.7396,-2.7322,-2.7322,-2.7322,-2.7322,0,-2.7499,-2.751,-2.7472,-2.7477,-2.7488,-2.7457,-2.7468,-2.7453,-2.7438,-2.7439,-2.7408,-2.7409,-2.7373,-2.7371,-2.735,-2.7356,-2.7354,-2.7343,-2.7337,-2.7345,-2.7346,-2.7341,-2.7336,-2.7324,-2.7323,-2.7323,-2.7323,0,-2.7563,-2.7539,-2.7545,-2.7519,-2.7513,-2.7522,-2.7499,-2.7503,-2.7484,-2.7486,-2.7485,-2.7455,-2.7451,-2.7424,-2.7413,-2.7398,-2.7412,-2.7401,-2.7418,-2.7414,-2.7434,-2.7432,-2.7506,-2.7514,-2.7437,-2.7438,-2.7438,0,-2.7597,-2.7604,-2.758,-2.7579,-2.7569,-2.7568,-2.7564,-2.7534,-2.7531,-2.7513,-2.7519,-2.7512,-2.7505,-2.75,-2.7477,-2.7469,-2.7456,-2.7483,-2.7455,-2.7463,-2.7455,-2.7455,-2.7455,-2.7488,-2.7489,-2.749,-2.7491,0,-2.766,-2.7648,-2.7643,-2.7635,-2.7631,-2.7623,-2.7613,-2.7614,-2.7581,-2.7579,-2.7575,-2.757,-2.756,-2.7553,-2.7541,-2.7529,-2.7504,-2.75,-2.7504,-2.7512,-2.7521,-2.7515,-2.7433,-2.7498,-2.7497,-2.7497,-2.7496,-2.7496,-2.7709,-2.7714,-2.7698,-2.7694,-2.7684,-2.7675,-2.7677,-2.766,-2.7656,-2.7646,-2.7629,-2.7627,-2.7611,-2.7593,-2.7583,-2.7581,-2.7566,-2.7572,-2.7573,-2.7575,-2.7579,-2.7523,-2.7579,-2.7578,-2.7578,-2.7578,-2.7578,0,-2.7769,-2.7757,-2.7754,-2.7742,-2.7739,-2.7718,-2.7706,-2.7705,-2.7704,-2.7692,-2.7686,-2.7682,-2.7676,-2.7654,-2.7645,-2.7648,-2.7637,-2.7647,-2.7645,-2.7643,-2.7593,-2.759,-2.7656,-2.7656,-2.7656,-2.7656,-2.7656,-2.7656,-2.78,-2.7807,-2.7794,-2.7796,-2.7784,-2.7783,-2.7778,-2.777,-2.776,-2.7756,-2.7752,-2.7738,-2.7722,-2.7712,-2.7706,-2.77,-2.7698,-2.7711,-2.7701,-2.7654,-2.7646,-2.7639,-2.7636,-2.7711,-2.7712,-2.7752,-2.7752,-2.7752]},{"header":{"parameterUnit":"m.s-1","parameterCategory":1,"la1":30.2991,"la2":30.254,"lo1":-89.0895,"lo2":-89.0444,"dy":0.0017,"dx":0.0017,"nx":28,"ny":28,"refTime":"2023-08-24T03:00:00:Z","depth":0,"parameterNumber":3,"parameterNumberName":"V-component_of_WINDS"},"data":[0,0,0,0,0,0,0,0,0,0,0,0,0,0,0,0,0,0,0,0,0,0,0,0,0,0,0,0,0,0,0,0,0,0,0,0,0,0,0,0,0,0,0,0,0,0,0,0,0,0,0,0,0,0,0,0,0,0,3.1771,3.177,0,3.1726,3.1726,3.1725,3.1707,3.1707,3.1707,3.1707,3.1655,3.1654,3.1652,0,0,0,0,0,0,0,0,0,0,0,0,0,3.1836,3.1835,3.1771,3.177,3.177,3.1726,3.1726,3.1725,3.1707,3.1707,3.1707,3.1707,3.1656,3.1654,3.1652,0,0,0,0,0,0,0,0,0,0,0,0,0,3.1801,3.1835,3.1771,3.1756,3.1754,3.1726,3.1726,3.1725,3.1707,3.1707,3.1707,3.1707,3.1656,3.1654,3.1652,3.1635,0,0,3.1645,3.1644,0,0,0,0,0,0,0,0,3.1803,3.1799,3.1758,3.1757,3.1755,3.1722,3.173,3.1694,3.1707,3.1724,3.1707,3.1707,3.1677,3.1673,3.1664,3.1632,3.163,3.1645,3.1644,3.1643,3.1642,0,0,0,0,0,0,0,3.1806,3.18,3.1753,3.1758,3.1755,3.1749,3.1745,3.1723,3.17,3.1723,3.1721,3.1717,3.1676,3.1666,3.1663,3.1629,3.1645,3.1643,3.1642,3.1641,3.1582,3.1582,0,0,0,0,0,0,3.1811,3.1803,3.1754,3.1752,3.178,3.1748,3.1743,3.1732,3.17,3.1696,3.1717,3.1716,3.167,3.1665,3.1661,3.1639,3.1643,3.1641,3.1639,3.1582,3.1582,3.1582,0,0,0,0,0,0,3.1813,3.1807,3.1756,3.1777,3.177,3.1747,3.1735,3.1731,3.1722,3.1696,3.1691,3.1711,3.167,3.1664,3.1642,3.1637,3.164,3.1638,3.1582,3.1582,3.1582,3.1595,0,0,0,0,0,0,3.1815,3.1808,3.1802,3.1777,3.1769,3.174,3.1735,3.173,3.1719,3.1718,3.1689,3.1685,3.167,3.1645,3.164,3.1634,3.1636,3.1583,3.1582,3.1582,3.1595,3.1596,3.1596,0,0,0,0,0,3.1817,3.1806,3.1802,3.1796,3.1762,3.1739,3.1735,3.1719,3.1718,3.1712,3.1695,3.1686,3.1639,3.1643,3.1637,3.163,3.1583,3.1582,3.1582,3.1595,3.1595,3.1596,0,0,0,0,0,0,3.1829,3.1803,3.1797,3.1778,3.1762,3.1736,3.1727,3.172,3.1701,3.1701,3.168,3.1674,3.1654,3.164,3.1645,3.1612,3.161,3.1608,3.1622,3.1622,3.1623,3.1626,3.1634,0,0,0,0,0,3.183,3.1816,3.1793,3.1778,3.177,3.1751,3.174,3.173,3.1711,3.1703,3.1685,3.1665,3.1646,3.1633,3.1614,3.1593,3.1587,3.1586,3.1586,3.1586,3.1585,3.1573,3.1572,3.158,3.158,3.158,0,0,3.183,3.1814,3.1806,3.178,3.1766,3.175,3.1744,3.1728,3.1716,3.17,3.1679,3.1665,3.1641,3.162,3.161,3.1608,3.1581,3.1586,3.1586,3.1584,3.1572,3.1572,3.1571,3.158,3.158,3.158,0,0,3.1824,3.181,3.1797,3.1784,3.1763,3.175,3.1747,3.1724,3.1714,3.1693,3.1681,3.1666,3.1633,3.1617,3.1605,3.1594,3.1585,3.1589,3.159,3.1578,3.1578,3.1577,3.1573,3.1572,3.1587,3.1587,3.1587,0,3.1826,3.1804,3.1791,3.1776,3.1764,3.1752,3.1738,3.1724,3.1698,3.169,3.1688,3.1648,3.1632,3.1607,3.1605,3.1595,3.159,3.1591,3.1579,3.1579,3.1578,3.1574,3.1572,3.1588,3.1588,3.1588,3.1588,0,3.1809,3.1794,3.1785,3.1763,3.175,3.1736,3.1719,3.1708,3.1699,3.1686,3.1665,3.1645,3.1622,3.1615,3.1605,3.1589,3.1589,3.1584,3.1581,3.1578,3.1574,3.1572,3.1589,3.1588,3.1588,3.1588,0,0,3.1807,3.1779,3.1775,3.1765,3.1743,3.173,3.1715,3.1694,3.1685,3.1668,3.1654,3.1627,3.1623,3.1609,3.1598,3.1588,3.1581,3.1584,3.1583,3.1584,3.1562,3.1566,3.1564,3.1575,3.1575,3.1575,3.1564,0,3.1797,3.1771,3.1759,3.1738,3.1723,3.1712,3.1698,3.1682,3.167,3.1655,3.1641,3.1623,3.1619,3.1611,3.1601,3.1584,3.1576,3.1585,3.1561,3.156,3.1567,3.1562,3.1565,3.1556,3.1562,3.1562,3.1562,0,3.1781,3.1766,3.1744,3.1725,3.1718,3.1706,3.1687,3.1674,3.1655,3.1647,3.1633,3.1622,3.1604,3.1604,3.1579,3.1585,3.1574,3.1565,3.1564,3.1561,3.156,3.1558,3.1553,3.1551,3.1559,3.1559,3.1559,0,3.1782,3.1756,3.174,3.1731,3.1708,3.17,3.169,3.1671,3.166,3.1643,3.1636,3.1616,3.1605,3.159,3.1574,3.1575,3.155,3.1548,3.1542,3.1542,3.1536,3.1537,3.1529,3.153,3.153,3.153,3.1531,0,3.1771,3.1758,3.174,3.173,3.1715,3.1701,3.1686,3.1674,3.1659,3.1645,3.1634,3.1621,3.1601,3.1585,3.1572,3.1554,3.1549,3.1541,3.1537,3.1541,3.1543,3.1534,3.1534,3.153,3.153,3.153,3.153,0,3.1769,3.1756,3.1738,3.1718,3.1713,3.1703,3.1685,3.1674,3.1662,3.1646,3.1641,3.1621,3.1603,3.1586,3.156,3.1551,3.1532,3.1528,3.1539,3.1537,3.1532,3.1533,3.1518,3.1515,3.1519,3.1519,3.1519,0,3.1763,3.1753,3.1733,3.1724,3.1715,3.17,3.169,3.1676,3.1665,3.1645,3.1636,3.1617,3.1601,3.1572,3.1554,3.1535,3.153,3.1526,3.1526,3.1531,3.1529,3.153,3.1529,3.1526,3.1526,3.1526,3.1526,0,3.1753,3.1748,3.1734,3.1719,3.1708,3.1694,3.168,3.1673,3.1656,3.1645,3.1627,3.1615,3.159,3.1571,3.155,3.1537,3.1528,3.1526,3.1524,3.1527,3.1534,3.153,3.1539,3.1526,3.1526,3.1526,3.1526,3.1526,3.1748,3.174,3.1725,3.171,3.1699,3.1686,3.1676,3.1664,3.1649,3.163,3.1622,3.1604,3.1586,3.1557,3.1545,3.1529,3.1528,3.1524,3.1523,3.1522,3.1523,3.1538,3.1525,3.1525,3.1525,3.1525,3.1525,0,3.1738,3.1729,3.1716,3.1698,3.1686,3.1682,3.1666,3.1656,3.1641,3.1626,3.1612,3.1592,3.1574,3.1556,3.1537,3.1528,3.1523,3.1523,3.1523,3.152,3.1526,3.153,3.1527,3.1527,3.1527,3.1527,3.1527,3.1527,3.1731,3.1716,3.171,3.1689,3.1679,3.1663,3.1654,3.1643,3.1631,3.1609,3.1595,3.1585,3.1569,3.1549,3.1532,3.1527,3.152,3.1521,3.1515,3.152,3.152,3.152,3.1524,3.152,3.152,3.1511,3.1511,3.151]}]]